Wind_Speed
22 23 20 18 19 21 21 24 22 17 11 11 17 21 22 25 19 17 18 21 23 25 22 24 23 21 25 29 26 20 18 21 18 17 13 11 11 12 10 10 9 12 12 11 11 7 10 5 9 5 4 9 11 12
20 16 15 16 20 22 24 19 15 12 11 12 15 18 21 21 18 22 22 25 32 35 32 34 33 27 26 31 30 29 23 13 19 14 16 10 11 9 13 7 17 11 12 7 10 5 5 7 8 7 7 10 10 14
16 14 18 15 22 22 21 16 12 12 14 16 17 19 20 21 20 22 26 29 34 41 45 37 27 29 41 37 39 37 32 24 18 22 15 15 9 11 11 16 14 16 14 20 14 13 14 14 17 14 13 12 11 15
18 15 17 20 22 21 18 15 14 16 19 19 18 18 21 21 21 28 31 31 29 31 32 12 16 22 28 35 47 48 33 32 22 19 20 18 14 11 11 14 13 16 16 18 23 22 21 21 19 19 18 18 15 14
19 17 18 19 21 21 19 17 17 18 19 20 18 21 18 22 27 30 26 20 18 17 25 22 18 15 28 33 45 49 41 29 33 22 22 21 19 14 14 16 19 15 18 20 25 24 24 22 22 24 22 19 18 16
19 19 20 21 21 22 19 18 18 18 16 16 19 18 22 26 23 20 9 6 8 12 21 29 21 11 19 17 29 46 41 37 26 24 23 19 15 11 9 13 12 12 13 13 20 24 27 25 22 22 25 26 21 19
19 19 19 21 22 20 19 18 19 18 18 16 16 19 20 15 15 8 6 10 13 14 19 19 12 10 10 16 23 40 45 37 26 21 28 20 14 13 18 23 17 16 19 19 19 19 15 11 14 16 19 20 22 20
22 22 20 19 19 18 18 19 17 15 17 17 14 17 11 12 10 9 11 12 16 15 11 12 16 10 7 10 23 39 37 35 20 16 20 17 14 14 14 17 14 14 14 16 18 18 16 15 16 14 17 17 18 17
22 22 20 17 16 15 16 17 16 16 16 16 14 13 7 5 11 13 14 14 13 10 8 12 13 6 5 18 25 21 21 27 11 16 15 13 16 13 9 12 13 14 13 10 12 17 22 21 19 17 18 18 20 19
20 21 18 14 13 13 15 14 15 15 16 11 13 9 7 6 11 16 12 8 10 11 12 17 11 5 3 8 15 10 18 11 5 12 7 18 25 22 20 21 20 21 17 16 18 17 19 19 19 19 20 21 18 19
15 17 13 13 12 12 13 14 15 14 14 11 11 9 9 11 14 8 3 4 7 6 8 10 11 4 6 10 14 8 7 6 4 6 13 7 20 19 18 20 21 17 14 18 15 11 14 16 15 16 16 18 19 19
11 11 15 16 14 12 13 13 14 14 15 12 11 13 9 8 5 3 2 1 2 4 7 4 3 1 12 9 6 11 6 7 3 7 7 8 19 13 10 8 3 8 13 8 15 19 21 19 22 18 15 14 13 14
11 13 15 15 15 13 12 13 15 13 14 15 10 7 4 5 5 3 0 1 2 3 5 3 4 8 9 18 6 6 6 5 4 7 5 13 14 13 10 5 1 3 2 8 22 14 10 9 8 13 12 12 14 17
17 12 13 12 12 12 13 13 14 15 13 12 6 5 4 4 4 4 5 6 8 7 8 9 7 2 4 7 4 3 5 5 4 6 8 8 9 13 12 7 2 1 4 8 17 20 12 3 3 5 1 9 15 22
18 18 13 9 10 10 11 12 14 15 14 10 6 4 6 6 10 12 11 12 13 12 11 9 10 6 3 3 4 5 4 5 6 7 9 8 11 15 11 6 3 2 3 4 6 11 10 17 16 14 15 15 18 17
20 21 14 11 12 10 11 13 15 16 16 7 6 8 10 13 12 13 14 15 11 11 10 9 6 4 5 4 5 5 4 5 3 7 7 10 15 13 11 8 5 4 1 3 6 9 11 12 11 9 8 15 22 21
16 19 20 17 14 14 13 15 18 18 7 8 14 15 17 17 19 21 17 15 12 11 12 7 6 7 5 6 7 7 8 9 10 10 6 15 13 13 12 11 9 8 8 9 10 13 14 15 14 14 14 10 8 10
15 16 19 18 15 16 14 14 16 13 15 20 18 15 17 18 19 21 18 14 12 14 16 16 9 12 7 7 10 8 7 8 8 7 8 14 13 13 13 12 12 14 16 18 20 20 21 20 19 17 16 15 13 12
16 17 17 19 19 18 17 21 12 16 21 17 17 16 18 20 18 18 20 17 13 18 20 22 13 19 24 20 12 13 14 16 16 8 3 8 11 14 16 19 21 23 24 25 26 27 28 28 26 24 22 20 18 16
15 15 17 18 21 19 19 15 19 21 20 19 19 22 22 22 23 19 16 22 20 19 25 29 30 26 8 11 13 13 13 12 12 12 14 16 19 21 24 26 28 29 29 28 28 27 27 26 25 23 23 23 23 22
15 16 19 18 21 20 21 24 26 17 18 26 26 28 24 23 22 22 17 17 27 29 26 23 25 26 24 26 28 29 28 26 25 24 23 22 22 23 24 24 25 25 26 26 25 25 25 24 23 22 22 22 22 24
15 13 12 14 17 20 24 28 30 32 29 30 27 24 26 25 25 24 27 23 25 29 28 19 16 17 22 23 25 28 27 25 22 22 22 20 20 21 23 23 24 25 25 25 25 24 24 23 23 24 23 23 23 23
18 14 14 15 13 19 24 28 30 30 25 29 29 29 27 31 31 32 26 25 21 14 16 24 18 19 19 20 21 22 22 22 21 21 21 22 23 21 21 22 23 24 25 26 26 25 25 24 24 24 24 24 24 24
16 16 15 11 15 15 23 27 31 31 29 27 32 33 31 32 34 35 36 24 15 15 16 17 19 18 19 21 23 24 24 26 24 23 23 22 21 22 23 24 24 24 24 24 25 25 24 24 25 25 24 24 24 25
17 16 12 15 17 18 23 27 31 34 34 32 31 29 31 31 30 34 32 16 13 12 15 17 20 25 23 20 19 19 21 21 22 24 23 22 23 22 22 24 24 26 26 25 25 24 25 24 24 23 23 22 23 25
16 12 17 23 26 27 27 28 31 28 25 23 23 24 29 27 28 20 22 14 11 8 7 9 14 16 19 19 19 18 20 20 20 21 22 23 22 23 23 24 24 23 28 27 27 27 26 27 26 26 25 25 25 25
24 22 23 28 29 29 28 29 30 29 26 24 26 26 22 12 10 12 13 10 8 8 7 5 6 7 7 8 12 15 18 20 20 19 21 22 23 25 28 28 26 24 25 27 29 29 28 28 29 29 29 28 28 29
34 34 34 34 34 33 30 31 34 33 29 29 30 26 14 13 20 24 26 17 13 5 6 8 12 15 16 17 17 18 19 19 20 20 21 22 25 28 29 28 28 29 30 30 30 30 31 32 33 34 34 32 31 33
41 40 37 36 32 34 38 42 43 41 34 28 29 32 34 32 31 33 26 22 21 16 14 17 20 18 16 18 19 21 21 21 22 22 23 24 25 26 28 29 31 32 32 32 32 34 36 37 38 39 40 39 37 36
38 35 38 39 39 41 39 39 40 35 31 26 30 33 34 32 30 29 27 24 23 24 23 23 24 24 24 23 23 22 22 22 22 25 26 25 25 26 28 29 30 32 33 34 36 38 40 43 44 42 39 36 34 34
31 32 35 37 38 35 34 37 36 35 33 34 34 34 34 35 32 29 25 22 22 23 25 24 25 25 25 25 24 23 22 24 25 26 26 26 26 28 29 31 34 36 37 39 39 40 40 37 33 29 26 24 24 25
35 36 36 33 29 29 28 31 30 30 30 27 28 29 30 34 36 30 23 21 22 24 23 22 21 20 21 20 21 21 23 25 25 25 25 26 28 30 32 35 38 39 40 40 37 30 24 21 20 19 17 17 17 19
28 25 27 28 28 27 28 28 27 28 27 28 27 28 32 34 33 27 19 17 20 21 22 22 21 18 17 18 19 21 21 21 22 24 26 28 31 33 36 37 39 38 33 27 21 16 12 10 10 10 10 11 12 14
Wind_Direction
301 304 305 306 310 310 307 307 303 298 300 321 313 303 272 256 267 282 300 300 298 291 289 275 263 254 239 237 235 235 232 226 220 220 221 224 234 224 224 215 218 212 204 205 213 224 258 232 210 229 281 307 303 311
302 299 277 283 301 311 311 308 302 305 313 316 320 306 290 284 293 289 299 298 295 296 287 282 275 262 252 232 228 228 222 219 215 213 221 219 225 225 225 224 220 219 214 215 213 245 197 174 197 290 293 306 307 321
309 294 299 288 305 307 312 304 296 302 302 302 302 311 305 300 290 295 298 299 300 296 292 291 286 252 241 234 227 222 215 215 212 214 221 223 225 234 230 238 233 228 226 235 242 244 240 247 248 274 287 286 297 318
310 305 299 299 308 307 310 298 295 296 301 302 300 304 297 295 304 301 301 300 293 290 293 341 290 266 253 235 221 218 209 212 216 212 220 226 227 243 243 245 243 240 242 247 255 255 250 256 259 255 263 267 278 294
308 313 305 304 310 313 312 294 296 301 303 303 303 299 307 311 304 304 303 295 292 281 295 315 304 276 250 239 221 211 201 201 207 204 211 221 227 240 256 260 253 255 256 251 256 268 268 268 256 253 257 261 258 273
304 313 312 306 307 303 300 299 299 305 303 296 307 319 317 315 316 317 309 293 313 311 304 314 333 263 231 227 214 202 194 200 184 205 209 214 221 233 252 255 255 247 231 264 267 265 271 277 274 256 250 248 253 261
299 305 310 305 302 298 295 302 303 305 292 297 310 315 320 324 336 349 345 350 336 311 317 322 354 352 240 214 194 194 195 209 192 208 210 221 221 233 253 260 263 263 274 279 274 279 274 278 303 263 261 258 248 255
297 294 301 308 308 303 303 307 308 307 300 297 311 319 328 341 353 355 3 347 343 335 328 322 349 30 107 179 183 193 195 198 198 184 197 206 224 243 262 273 269 267 268 268 277 283 287 271 275 278 258 251 244 246
291 286 293 303 306 306 312 313 306 302 297 302 318 321 321 346 359 355 341 339 340 1 347 7 19 51 205 148 170 169 166 180 159 201 209 221 232 231 258 261 265 265 266 263 269 281 280 280 277 268 265 255 248 250
278 275 290 300 308 309 315 315 312 302 303 307 323 321 302 309 329 331 331 336 347 6 22 37 45 106 239 127 116 140 189 195 211 219 218 243 248 252 258 261 264 264 271 292 302 294 272 275 280 268 258 253 252 260
288 285 286 307 316 316 319 318 318 301 303 302 320 321 298 302 319 310 306 358 359 359 14 25 32 141 145 175 167 147 177 177 226 231 209 240 257 268 262 256 265 273 293 305 299 290 279 271 272 276 257 253 250 257
306 289 294 304 318 318 320 322 323 311 304 297 308 316 294 287 289 279 299 2 356 337 359 13 248 48 192 183 186 193 180 194 191 183 203 247 254 261 257 262 256 299 299 300 319 309 299 285 255 254 237 228 246 258
328 294 298 301 313 319 330 331 334 320 314 311 308 311 286 239 257 273 180 265 262 282 297 339 13 202 199 202 224 165 184 195 195 195 236 243 244 235 217 194 236 336 24 351 345 328 310 299 248 229 226 232 245 259
355 336 309 302 302 319 329 333 339 334 321 329 305 284 280 263 252 259 271 264 260 258 262 271 290 359 144 162 164 162 185 210 216 227 236 247 218 199 188 191 227 203 29 346 345 19 23 55 90 35 329 270 282 276
342 345 341 309 292 310 320 328 337 340 332 320 297 256 264 297 318 315 307 298 281 259 247 258 264 268 228 203 193 195 203 225 226 242 248 257 199 183 185 192 189 3 294 338 1 349 3 16 35 32 22 8 355 323
331 343 334 306 290 292 310 322 326 332 332 292 255 273 277 286 309 319 315 307 301 250 236 242 245 251 233 225 218 202 218 230 250 308 256 188 179 184 186 191 197 220 253 340 344 352 5 12 351 328 346 8 5 14
305 326 325 313 295 292 301 312 320 328 320 318 316 308 298 291 282 282 303 310 291 232 221 218 231 219 212 225 218 225 243 273 297 316 239 188 192 197 204 212 225 246 268 284 297 310 319 322 324 329 340 321 336 358
286 305 320 315 299 290 289 299 310 310 312 328 327 318 311 303 293 286 266 294 271 232 223 230 233 225 222 214 229 272 266 283 323 305 229 204 210 219 229 244 264 279 286 290 293 296 300 305 309 304 302 305 317 293
276 284 304 312 315 287 277 291 292 298 309 319 326 325 322 330 322 296 261 257 270 243 236 239 244 244 244 247 256 273 284 291 300 300 272 244 250 257 264 272 280 286 289 290 292 294 296 296 295 293 290 286 284 286
279 284 293 308 309 289 274 277 286 291 301 307 314 321 322 322 325 317 280 245 259 256 243 242 240 241 254 249 246 253 265 271 279 285 283 279 276 276 278 280 283 287 290 292 294 295 296 295 293 289 283 277 272 269
271 279 283 285 299 288 264 273 278 285 293 304 309 317 319 323 323 321 303 275 254 252 256 257 255 258 261 259 259 265 272 274 279 284 286 284 281 281 281 281 281 283 285 289 292 292 292 293 294 293 290 284 276 267
263 274 289 290 282 282 274 270 273 282 286 294 301 312 319 319 321 322 318 295 274 262 258 268 270 258 252 252 255 259 265 268 267 269 274 278 279 281 282 282 284 286 287 288 289 291 292 293 293 292 290 286 281 274
254 258 266 276 273 275 275 279 273 274 277 289 301 309 311 313 312 317 313 307 293 283 269 247 262 245 244 247 253 253 257 257 264 269 276 279 282 280 280 283 286 287 289 291 292 293 293 294 294 293 290 287 284 279
255 257 265 268 268 258 280 276 273 273 277 281 296 305 308 307 310 309 316 310 308 278 267 247 232 241 253 263 263 263 259 256 261 272 279 277 275 277 281 284 284 284 285 285 284 285 287 287 288 289 290 289 285 280
252 253 237 244 251 260 274 287 286 279 278 288 296 299 296 302 300 309 314 327 321 269 250 246 245 242 255 266 261 255 256 258 268 273 272 271 274 278 280 281 286 289 289 291 293 294 294 295 295 294 292 289 285 283
237 229 235 250 256 261 268 273 280 285 285 290 290 300 302 298 300 305 318 326 291 278 273 259 248 252 253 253 251 255 261 262 263 267 269 271 275 278 283 290 293 290 291 295 295 294 295 296 297 295 292 288 285 282
233 229 243 255 255 263 263 271 275 272 274 282 290 296 294 286 299 317 328 318 305 306 293 265 245 236 243 258 268 272 272 271 270 268 271 277 284 290 293 293 292 290 289 289 289 290 291 291 291 289 287 285 282 279
250 251 253 258 253 253 256 262 266 270 273 272 275 274 268 274 301 309 304 278 272 279 279 281 290 292 296 294 288 290 289 282 279 279 281 285 290 290 291 293 293 292 292 291 289 289 288 287 286 285 285 283 280 277
253 260 265 262 256 254 256 255 258 261 264 267 268 280 282 286 299 306 300 271 262 269 266 284 292 294 297 294 292 292 288 285 284 284 287 290 288 289 293 293 293 293 293 292 292 292 290 289 289 288 286 282 277 272
264 267 267 268 265 261 260 260 263 265 267 271 272 276 278 282 296 299 292 276 269 261 266 278 288 291 293 295 296 292 288 286 286 291 294 295 295 294 293 292 292 292 292 293 294 293 292 293 293 290 285 279 271 264
262 269 272 272 270 269 264 264 263 266 263 261 265 269 275 281 286 288 282 279 271 269 276 280 282 283 286 288 286 285 285 289 293 295 297 298 298 298 298 298 298 297 297 297 296 296 294 291 288 284 279 271 262 254
268 274 273 271 273 265 260 260 257 251 250 260 265 269 274 281 285 280 269 268 268 274 279 278 281 282 280 278 279 284 290 294 297 298 301 303 304 303 301 300 299 298 298 296 295 292 288 285 282 279 273 264 254 246
256 267 278 277 260 259 254 252 255 259 258 261 265 270 276 277 277 272 276 275 270 268 269 273 276 275 278 282 288 292 294 297 301 305 306 306 305 304 302 300 300 298 296 291 284 277 278 284 279 271 264 257 250 243
Height
3026 3024 3022 3020 3018 3016 3014 3011 3009 3007 3006 3004 3003 3002 3000 3000 2999 3000 3000 2999 2999 2997 3001 2999 3000 3001 3002 3005 3006 3009 3012 3012 3014 3017 3018 3018 3018 3019 3019 3019 3019 3022 3024 3025 3027 3028 3024 3021 3024 3026 3026 3025 3024 3023
3022 3020 3020 3018 3015 3013 3010 3007 3006 3005 3004 3002 3001 3000 2998 2996 2995 2993 2994 2993 2989 2986 2988 2988 2990 2994 2992 2995 2997 3000 3003 3005 3009 3011 3013 3014 3014 3014 3015 3016 3016 3019 3018 3019 3020 3018 3019 3020 3021 3021 3021 3022 3021 3020
3019 3018 3017 3015 3013 3010 3007 3005 3004 3002 3001 3000 2998 2996 2994 2992 2990 2989 2988 2986 2982 2975 2971 2973 2972 2971 2973 2981 2988 2988 2993 3000 3002 3005 3008 3010 3011 3010 3011 3011 3013 3013 3014 3014 3016 3016 3017 3018 3018 3018 3019 3019 3018 3017
3017 3015 3013 3012 3009 3006 3004 3002 3001 2999 2997 2995 2994 2992 2990 2988 2985 2983 2980 2978 2975 2970 2962 2964 2960 2961 2961 2961 2966 2976 2990 2993 2998 3000 3002 3004 3006 3007 3007 3008 3009 3010 3010 3010 3010 3011 3012 3013 3013 3014 3015 3015 3015 3014
3014 3011 3010 3008 3005 3002 3000 2999 2997 2996 2993 2991 2989 2987 2984 2982 2980 2976 2972 2969 2967 2967 2958 2952 2949 2948 2944 2945 2951 2964 2975 2983 2991 2995 2996 3000 3002 3004 3004 3004 3003 3005 3005 3005 3004 3004 3005 3007 3008 3008 3008 3009 3010 3010
3010 3008 3006 3003 3002 2999 2997 2996 2994 2992 2989 2987 2985 2982 2980 2978 2974 2971 2968 2966 2964 2961 2955 2945 2940 2936 2934 2935 2944 2956 2970 2975 2983 2989 2991 2994 2998 3001 3000 2998 2999 2999 3000 3000 3000 2999 2999 3000 2999 3000 3000 3002 3003 3004
3007 3005 3003 3001 2998 2996 2994 2992 2991 2988 2985 2984 2982 2980 2978 2975 2971 2970 2969 2966 2963 2960 2954 2943 2938 2935 2932 2935 2941 2952 2962 2970 2979 2983 2986 2991 2994 2995 2994 2993 2996 2996 2996 2995 2993 2992 2993 2993 2993 2993 2994 2995 2997 2998
3003 3002 3001 2998 2996 2994 2992 2990 2987 2984 2983 2981 2980 2978 2975 2973 2971 2969 2967 2965 2962 2957 2952 2947 2943 2939 2937 2939 2943 2952 2962 2971 2973 2977 2982 2986 2989 2990 2988 2989 2990 2991 2991 2990 2989 2988 2987 2988 2989 2987 2988 2989 2990 2992
2999 2999 2998 2995 2993 2992 2990 2987 2984 2982 2980 2979 2978 2975 2974 2972 2971 2968 2967 2965 2963 2960 2954 2952 2949 2948 2946 2949 2953 2957 2962 2970 2972 2977 2981 2984 2983 2983 2984 2985 2986 2986 2987 2987 2986 2985 2982 2981 2982 2982 2982 2983 2984 2986
2996 2995 2994 2993 2991 2990 2988 2985 2982 2980 2978 2977 2977 2975 2972 2971 2969 2969 2966 2965 2962 2960 2957 2956 2955 2953 2955 2955 2957 2961 2964 2969 2972 2975 2977 2978 2976 2979 2981 2982 2983 2982 2983 2982 2980 2979 2976 2975 2974 2975 2976 2976 2978 2979
2993 2993 2992 2991 2989 2988 2986 2983 2981 2978 2977 2976 2975 2974 2972 2970 2969 2967 2965 2966 2965 2963 2960 2959 2957 2957 2959 2960 2962 2965 2968 2971 2972 2975 2976 2974 2971 2975 2976 2977 2978 2979 2978 2977 2975 2973 2972 2971 2970 2969 2969 2971 2972 2974
2992 2992 2991 2989 2988 2986 2984 2982 2979 2977 2975 2974 2974 2972 2970 2969 2967 2966 2965 2967 2966 2965 2963 2962 2962 2961 2961 2962 2964 2967 2968 2970 2971 2972 2973 2969 2969 2972 2972 2973 2974 2974 2974 2973 2972 2968 2963 2961 2961 2964 2965 2967 2968 2968
2990 2990 2990 2988 2987 2985 2983 2981 2978 2976 2974 2972 2971 2970 2969 2968 2967 2965 2965 2966 2966 2965 2964 2963 2962 2962 2961 2964 2965 2965 2967 2969 2970 2970 2968 2965 2966 2968 2969 2971 2972 2972 2972 2970 2967 2961 2958 2957 2957 2959 2961 2963 2963 2964
2988 2987 2987 2987 2986 2984 2982 2980 2978 2976 2973 2972 2970 2970 2968 2966 2965 2965 2965 2965 2965 2964 2963 2962 2962 2961 2962 2963 2963 2964 2966 2967 2966 2965 2961 2961 2962 2965 2967 2969 2970 2970 2969 2969 2967 2963 2959 2957 2957 2957 2958 2959 2958 2957
2987 2986 2984 2984 2984 2983 2981 2980 2978 2976 2973 2971 2970 2968 2966 2966 2965 2965 2965 2964 2963 2962 2961 2961 2962 2962 2961 2962 2962 2963 2963 2962 2961 2958 2958 2958 2959 2963 2965 2967 2968 2968 2968 2967 2966 2964 2962 2960 2957 2956 2956 2956 2953 2948
2986 2985 2983 2981 2982 2981 2979 2978 2977 2975 2972 2970 2968 2967 2966 2965 2965 2963 2961 2960 2959 2959 2960 2960 2960 2960 2960 2960 2960 2959 2959 2957 2957 2956 2956 2957 2959 2962 2964 2966 2966 2967 2966 2966 2965 2964 2962 2961 2959 2958 2956 2954 2952 2947
2983 2983 2981 2979 2979 2978 2977 2976 2974 2972 2971 2969 2967 2965 2963 2962 2961 2960 2960 2957 2956 2957 2958 2959 2958 2957 2957 2957 2956 2956 2955 2956 2956 2956 2955 2957 2959 2961 2963 2964 2964 2964 2964 2963 2962 2961 2960 2959 2958 2956 2955 2953 2952 2950
2979 2980 2979 2978 2976 2975 2974 2973 2972 2970 2968 2966 2963 2962 2959 2958 2956 2955 2955 2955 2954 2953 2955 2955 2954 2953 2952 2952 2953 2954 2955 2955 2954 2954 2954 2956 2957 2959 2960 2961 2961 2961 2960 2960 2959 2958 2957 2956 2955 2953 2952 2951 2950 2949
2973 2974 2975 2974 2974 2973 2972 2969 2969 2965 2964 2962 2960 2958 2956 2954 2951 2950 2949 2949 2949 2949 2950 2949 2950 2947 2948 2951 2952 2952 2953 2953 2953 2954 2954 2955 2956 2956 2957 2957 2957 2956 2955 2954 2953 2952 2950 2949 2949 2948 2947 2946 2945 2944
2969 2969 2969 2969 2969 2969 2968 2966 2963 2962 2959 2959 2957 2955 2952 2950 2948 2945 2943 2943 2943 2942 2942 2941 2942 2944 2946 2947 2947 2948 2948 2949 2949 2950 2951 2951 2951 2951 2951 2950 2949 2948 2947 2946 2945 2944 2942 2940 2940 2939 2939 2938 2939 2939
2963 2963 2963 2963 2964 2964 2964 2961 2958 2957 2955 2953 2951 2950 2947 2945 2943 2940 2938 2936 2935 2933 2934 2936 2938 2940 2941 2942 2943 2944 2943 2943 2943 2944 2944 2944 2944 2943 2943 2942 2941 2940 2939 2938 2937 2936 2935 2934 2933 2932 2931 2930 2931 2930
2958 2957 2957 2957 2957 2957 2956 2954 2954 2951 2951 2948 2947 2946 2942 2939 2938 2935 2932 2929 2926 2927 2929 2931 2931 2932 2932 2934 2935 2936 2937 2937 2937 2937 2937 2937 2936 2936 2935 2934 2933 2932 2931 2930 2929 2928 2927 2927 2926 2925 2924 2923 2923 2922
2951 2952 2952 2952 2952 2950 2950 2948 2946 2944 2945 2942 2941 2940 2937 2934 2932 2929 2925 2922 2920 2922 2920 2921 2923 2924 2925 2926 2927 2929 2930 2931 2931 2931 2931 2930 2929 2929 2927 2927 2926 2925 2924 2922 2922 2921 2921 2919 2917 2917 2916 2915 2915 2914
2944 2945 2947 2946 2945 2943 2942 2940 2938 2938 2938 2938 2937 2934 2931 2928 2926 2921 2916 2914 2914 2913 2913 2914 2916 2917 2918 2920 2921 2922 2922 2923 2924 2924 2923 2922 2922 2921 2920 2918 2918 2917 2916 2916 2914 2914 2913 2912 2911 2909 2907 2907 2906 2906
2939 2940 2941 2937 2936 2936 2935 2934 2932 2932 2931 2933 2931 2929 2926 2923 2920 2916 2910 2909 2908 2906 2906 2907 2908 2910 2912 2913 2913 2913 2915 2917 2917 2917 2916 2916 2915 2914 2913 2912 2911 2908 2906 2906 2906 2905 2904 2902 2902 2901 2899 2899 2898 2898
2928 2930 2930 2927 2927 2928 2928 2927 2926 2925 2926 2927 2925 2924 2921 2918 2915 2911 2907 2906 2905 2905 2904 2904 2905 2906 2907 2907 2908 2909 2910 2911 2910 2910 2909 2908 2907 2907 2905 2904 2903 2901 2896 2896 2896 2895 2894 2893 2893 2892 2891 2890 2889 2889
2917 2918 2917 2917 2918 2919 2920 2920 2920 2921 2920 2921 2919 2919 2918 2915 2910 2909 2907 2905 2903 2902 2901 2900 2900 2902 2903 2904 2904 2904 2904 2903 2902 2902 2901 2900 2898 2896 2895 2894 2893 2892 2890 2889 2887 2886 2885 2884 2883 2882 2881 2881 2880 2879
2904 2906 2907 2910 2910 2912 2913 2913 2912 2913 2914 2915 2914 2914 2913 2909 2908 2907 2905 2903 2901 2900 2900 2900 2900 2900 2899 2899 2898 2897 2896 2895 2894 2893 2893 2892 2891 2888 2885 2884 2883 2881 2880 2879 2877 2876 2874 2873 2871 2870 2869 2869 2869 2867
2893 2896 2899 2900 2903 2905 2904 2905 2904 2905 2907 2908 2908 2907 2905 2903 2904 2901 2898 2897 2897 2896 2896 2895 2894 2894 2894 2893 2892 2891 2889 2888 2887 2886 2885 2884 2882 2880 2876 2874 2872 2870 2868 2867 2865 2863 2861 2859 2858 2856 2854 2854 2855 2854
2886 2889 2889 2890 2891 2889 2893 2895 2894 2897 2899 2899 2899 2897 2897 2896 2897 2894 2891 2890 2890 2890 2889 2888 2888 2887 2886 2885 2884 2883 2882 2881 2879 2878 2876 2874 2872 2870 2867 2864 2862 2860 2858 2856 2854 2851 2846 2843 2841 2839 2837 2837 2837 2838
2878 2879 2879 2878 2877 2879 2882 2885 2886 2887 2888 2889 2889 2888 2888 2887 2887 2887 2885 2884 2883 2882 2882 2882 2881 2879 2878 2877 2876 2876 2875 2873 2871 2869 2866 2864 2862 2859 2856 2853 2850 2847 2844 2841 2838 2835 2832 2828 2826 2825 2824 2824 2825 2826
2870 2870 2869 2867 2867 2870 2872 2874 2876 2877 2878 2879 2880 2880 2880 2879 2875 2875 2876 2877 2876 2875 2875 2874 2873 2872 2871 2870 2869 2868 2867 2865 2862 2860 2858 2855 2852 2849 2846 2842 2838 2834 2830 2827 2824 2821 2820 2819 2817 2816 2816 2816 2817 2818
2861 2861 2861 2861 2861 2862 2865 2868 2869 2870 2870 2871 2871 2871 2871 2870 2866 2867 2868 2869 2869 2868 2867 2867 2866 2865 2865 2864 2863 2861 2859 2857 2855 2852 2849 2846 2843 2839 2835 2830 2825 2820 2817 2814 2813 2813 2813 2813 2813 2813 2813 2814 2814 2815